This is the latest recevied weather packets stored in our database for station/object HB9TJR-3. If no packets are shown the sender has not sent any weather packets the latest 10 day(s).
| Time | Temp. | Humidity | Pressure | Rain* | Wind** | Luminosity | Snow |
|---|---|---|---|---|---|---|---|
| 1777564775 | 11.11° C | 62% | 869.5 hPa | 0 mm | - | - | - |
| 1777563816 | 11.11° C | 64% | 869.3 hPa | 0 mm | - | - | - |
| 1777562855 | 11.11° C | 64% | 869.3 hPa | 0 mm | - | - | - |
| 1777561895 | 11.67° C | 65% | 869.2 hPa | 0 mm | - | - | - |
| 1777559976 | 12.22° C | 67% | 869.1 hPa | 0 mm | - | - | - |
| 1777559015 | 12.78° C | 69% | 869.2 hPa | 0 mm | - | - | - |
| 1777558055 | 12.78° C | 71% | 869.1 hPa | 0 mm | - | - | - |
| 1777557095 | 12.78° C | 73% | 869.2 hPa | 0 mm | - | - | - |
| 1777556136 | 12.78° C | 70% | 869.2 hPa | 0 mm | - | - | - |
| 1777554215 | 12.78° C | 71% | 869.3 hPa | 0 mm | - | - | - |
| 1777553255 | 12.78° C | 71% | 869.3 hPa | 0 mm | - | - | - |
| 1777552295 | 12.22° C | 71% | 869.4 hPa | 0 mm | - | - | - |
| 1777551335 | 12.22° C | 73% | 869.4 hPa | 0 mm | - | - | - |
| 1777550376 | 12.22° C | 74% | 869.4 hPa | 0 mm | - | - | - |
| 1777549415 | 12.22° C | 73% | 869.3 hPa | 0 mm | - | - | - |
| 1777548455 | 12.22° C | 73% | 869.4 hPa | 0 mm | - | - | - |
| 1777547496 | 12.22° C | 72% | 869.5 hPa | 0 mm | - | - | - |
| 1777546536 | 12.78° C | 74% | 869.5 hPa | 0 mm | - | - | - |
| 1777545576 | 12.22° C | 77% | 869.4 hPa | 0 mm | - | - | - |
| 1777544616 | 11.67° C | 74% | 869.4 hPa | 0 mm | - | - | - |
| 1777543655 | 11.67° C | 76% | 869.3 hPa | 0 mm | - | - | - |
| 1777542696 | 11.11° C | 76% | 869.2 hPa | 0 mm | - | - | - |
| 1777541736 | 11.11° C | 73% | 869.2 hPa | 0 mm | - | - | - |
| 1777540776 | 11.11° C | 75% | 869 hPa | 0 mm | - | - | - |
| 1777539816 | 11.11° C | 74% | 869 hPa | 0 mm | - | - | - |
* Rain latest hour (hover to see other rain measurements)
** Current wind speed in m/s (hover to see current wind gust speed)